STARLINK-37178, 68526

Orbit data source: Space-Track

STARLINK-37178, 68526 is a payload satellite owned by SpaceX/Seattle (US) in LEO that was launched on Mon, 30 Mar 2026 UTC via an FALCON 9 launch vehicle from the Air Force Eastern Test Range (AFETR). Payload-class satellites include a variety of spacecraft equipped with specific instruments for various scientific and technological missions. These include communications satellites like Starlink; space stations such as the ISS; scientific satellites like the Hubble; Earth observation satellites from companies like Planet Labs, Umbra, and HawkEye 360; GPS; miniature CubeSats for education and research; and military/defense satellites.

Loading next visibility...
Identifier
68526, 2026-068U
Orbit
LEO
Country
Flag of USUS
Related business
Manufacturer
SpaceX/Seattle
Mission
Operational spacecraft
Bus & Motor
STARLINK V2MO, Unknown motor
Mass
575 kg wet, ~530 kg dry
Launch date (UTC)
2026-03-30 (3 months ago)
Launch vehicle
FALCON 9
Launch site
Air Force Eastern Test Range (AFETR)
Object type
Payload
Rocket body
Debris
Shape & HBR
Unknown shape, 3.2 m
Radar Cross Section
Large (>1 m²)

Expand to show TLE details & history
Last TLE update: 1 day ago

TLE from 1 day ago
0 STARLINK-37178
1 68526U 26068U   26170.83939448  .00051737  00000-0  93147-3 0  9993
2 68526  53.1587  11.3069 0000873  79.3028 280.8080 15.49329225 12624
Epoch: 2026-06-19T20:08Z
TLE epoch observation values (Epoch: 2026-06-19T20:08:43.683Z)
Latitude
0.00005°
Longitude
161.06232°
Altitude
419.483 km
Speed
7.661 km/s
True Right ascension
00h 45m 13s
True Declination
0° 00' 00"
Sunlit
Object was in daylight at epoch
Visualization orbit readout
Latitude
Unknown
Longitude
Unknown
Altitude
Unknown
Speed
Unknown
Apparent Right ascension
Unknown
Apparent Declination
Unknown
Sunlit
N/A
Visualization observer readout
Local Sidereal Time
07:21:56
Azimuth
Unknown
Elevation
Unknown
Doppler factor
Unknown
Orbital elements
Apogee altitude
419.539 km
Perigee altitude
418.352 km
Semi-major axis
6,797.083 km
Eccentricity
0.00009
Inclination
53.1587°
RAAN
11.3069°
Arg. of periapsis
79.3028°
True anomaly
280.79817°
Mean anomaly
280.808°
Eccentric anomaly
280.80309°
Mean motion
3.87311 °/min
Orbital period
92.95 mins
BSTAR
0.00093147
Loading maneuver chart data...
Computing Atmospheric mass density...
Loading historical data...
Loading historical data...
Loading historical data...
Loading historical data...
Loading historical data...
Loading historical data...
Loading historical data...

Documentation

Showing up to 5 results
|